[[{"header":{"parameterUnit":"m.s-1","parameterCategory":1,"la1":30.2991,"la2":30.254,"lo1":-89.0895,"lo2":-89.0444,"dy":0.0017,"dx":0.0017,"nx":28,"ny":28,"refTime":"2023-08-16T03:00:00:Z","depth":0,"parameterNumber":2,"parameterNumberName":"U-component_of_WINDS"},"data":[0,0,0,0,0,0,0,0,0,0,0,0,0,0,0,0,0,0,0,0,0,0,0,0,0,0,0,0,0,0,0,0,0,0,0,0,0,0,0,0,0,0,0,0,0,0,0,0,0,0,0,0,0,0,0,0,0,0,1.7237,1.7237,0,1.7276,1.7276,1.7277,1.7193,1.719,1.7188,1.7185,1.7225,1.7229,1.7232,0,0,0,0,0,0,0,0,0,0,0,0,0,1.7088,1.7091,1.7237,1.7237,1.7238,1.7276,1.7276,1.7277,1.7193,1.719,1.7187,1.7184,1.7224,1.7228,1.7233,0,0,0,0,0,0,0,0,0,0,0,0,0,1.7143,1.7092,1.7237,1.7201,1.7198,1.7276,1.7276,1.7277,1.7194,1.719,1.7186,1.7182,1.7223,1.7228,1.7233,1.7348,0,0,1.725,1.7252,0,0,0,0,0,0,0,0,1.714,1.7148,1.7205,1.7203,1.72,1.7225,1.7239,1.7301,1.7195,1.7196,1.7185,1.718,1.7229,1.7233,1.725,1.735,1.7352,1.725,1.7254,1.7256,1.7257,0,0,0,0,0,0,0,1.7136,1.7146,1.7252,1.7206,1.7203,1.7182,1.7185,1.725,1.7234,1.7195,1.7189,1.7195,1.7226,1.7245,1.725,1.7352,1.725,1.7255,1.7258,1.726,1.7547,1.7551,0,0,0,0,0,0,1.7137,1.7143,1.7251,1.7253,1.7159,1.7188,1.7192,1.7221,1.7234,1.7231,1.7198,1.7191,1.7237,1.7244,1.7251,1.7385,1.7256,1.7261,1.7264,1.7543,1.7548,1.7553,0,0,0,0,0,0,1.7134,1.7147,1.7249,1.7197,1.7208,1.7195,1.7229,1.7224,1.7242,1.7236,1.7233,1.722,1.7234,1.7243,1.7324,1.7386,1.7263,1.7268,1.7537,1.7544,1.755,1.7656,0,0,0,0,0,0,1.713,1.7147,1.7191,1.7198,1.7211,1.7323,1.7233,1.7228,1.7252,1.7242,1.7255,1.7254,1.7232,1.7317,1.733,1.7391,1.7273,1.7532,1.754,1.7548,1.7647,1.7665,1.7681,0,0,0,0,0,1.7125,1.7219,1.7193,1.7207,1.7266,1.7326,1.7334,1.7307,1.7257,1.7301,1.7296,1.7253,1.7377,1.7326,1.7339,1.7404,1.7528,1.7538,1.7548,1.7639,1.7662,1.7681,0,0,0,0,0,0,1.722,1.722,1.7191,1.729,1.7309,1.7312,1.7367,1.7332,1.7365,1.7355,1.732,1.7323,1.7411,1.7415,1.7358,1.7514,1.7444,1.7457,1.7509,1.753,1.7547,1.7544,1.7277,0,0,0,0,0,1.7252,1.7301,1.7298,1.7386,1.7397,1.738,1.7406,1.7383,1.7401,1.7409,1.741,1.7429,1.7471,1.7501,1.754,1.7646,1.7648,1.7697,1.7714,1.7728,1.774,1.7796,1.7818,1.7585,1.7585,1.7585,0,0,1.7319,1.7325,1.7359,1.7405,1.7417,1.7469,1.7388,1.7446,1.7483,1.7417,1.7494,1.7495,1.7514,1.7608,1.7649,1.7614,1.7805,1.7741,1.7752,1.7756,1.7808,1.7831,1.785,1.7592,1.759,1.7589,0,0,1.7469,1.7479,1.7553,1.7566,1.7584,1.7572,1.759,1.7598,1.7596,1.7672,1.7623,1.7667,1.7742,1.7757,1.7775,1.7927,1.7889,1.7941,1.8031,1.8086,1.8104,1.812,1.8175,1.8195,1.7953,1.7953,1.7953,0,1.7551,1.7626,1.7595,1.7656,1.7678,1.762,1.7694,1.7708,1.7739,1.7755,1.7714,1.7806,1.7814,1.7911,1.7948,1.7964,1.7983,1.794,1.8104,1.812,1.8134,1.8186,1.8206,1.7959,1.7959,1.7958,1.7957,0,1.7726,1.7779,1.7836,1.7867,1.7895,1.7962,1.7941,1.7972,1.7947,1.7939,1.8016,1.8024,1.8063,1.8084,1.806,1.8177,1.8154,1.811,1.8038,1.8163,1.8211,1.8231,1.7968,1.7966,1.7964,1.7963,0,0,1.7938,1.7949,1.797,1.7983,1.7998,1.8039,1.8103,1.8141,1.8169,1.8191,1.8244,1.8307,1.8266,1.8285,1.8262,1.831,1.8431,1.8259,1.8259,1.8291,1.8559,1.8594,1.8617,1.8404,1.8408,1.8411,1.8558,0,1.8085,1.8196,1.8169,1.8279,1.8327,1.8272,1.8327,1.8342,1.8336,1.8376,1.8368,1.8414,1.8356,1.8367,1.8412,1.8407,1.8484,1.8395,1.8453,1.8456,1.8451,1.8642,1.8679,1.8817,1.8576,1.8579,1.8582,0,1.8273,1.8303,1.8418,1.8424,1.8443,1.8494,1.8526,1.8564,1.858,1.8572,1.8593,1.856,1.8622,1.855,1.8635,1.8576,1.8597,1.8598,1.8602,1.8608,1.8527,1.8653,1.8861,1.8882,1.8611,1.8609,1.8606,0,1.8417,1.8485,1.8562,1.8574,1.8584,1.862,1.8626,1.8637,1.8661,1.8689,1.8704,1.8739,1.8758,1.8785,1.8762,1.8711,1.8852,1.8777,1.8847,1.8847,1.888,1.8878,1.9095,1.8893,1.8892,1.8892,1.8891,0,1.8585,1.8658,1.8626,1.8674,1.8753,1.872,1.8799,1.8798,1.8808,1.8854,1.8807,1.8851,1.8818,1.8858,1.884,1.8914,1.8923,1.8918,1.8913,1.8923,1.8924,1.8937,1.8928,1.8897,1.8896,1.8895,1.8894,0,1.8759,1.8741,1.8822,1.8823,1.8825,1.8884,1.8885,1.8928,1.8918,1.8976,1.8988,1.8972,1.9018,1.8997,1.9044,1.9032,1.9127,1.9108,1.9122,1.9117,1.9189,1.9182,1.9422,1.9452,1.923,1.9232,1.9234,0,1.8869,1.8923,1.893,1.8958,1.8966,1.9011,1.9035,1.9004,1.9031,1.9052,1.9093,1.9135,1.9166,1.9242,1.9234,1.927,1.9252,1.9333,1.9257,1.9266,1.9254,1.9251,1.9257,1.9349,1.9352,1.9354,1.9356,0,1.9065,1.9052,1.9089,1.9123,1.9153,1.9178,1.9199,1.9224,1.9194,1.9226,1.9272,1.9297,1.9345,1.9387,1.9418,1.9422,1.9385,1.9379,1.9398,1.9409,1.9415,1.9413,1.9165,1.9375,1.9373,1.9371,1.937,1.937,1.921,1.9255,1.9267,1.931,1.9322,1.9342,1.9383,1.9377,1.9415,1.9452,1.9431,1.9485,1.9497,1.9535,1.9545,1.9586,1.9554,1.958,1.9587,1.9594,1.9604,1.9408,1.9591,1.9591,1.959,1.959,1.9589,0,1.9403,1.9408,1.9447,1.9478,1.9511,1.9471,1.9492,1.9522,1.957,1.9585,1.9617,1.9669,1.9709,1.9704,1.974,1.9774,1.9757,1.9784,1.9782,1.9784,1.963,1.9611,1.9797,1.9797,1.9797,1.9797,1.9797,1.9797,1.9508,1.9583,1.9572,1.9652,1.9656,1.9708,1.9723,1.9741,1.9753,1.9814,1.9846,1.9842,1.9849,1.9885,1.9919,1.9917,1.9932,1.9967,1.9958,1.9815,1.9794,1.9775,1.9757,1.997,1.997,2.0107,2.0109,2.011]},{"header":{"parameterUnit":"m.s-1","parameterCategory":1,"la1":30.2991,"la2":30.254,"lo1":-89.0895,"lo2":-89.0444,"dy":0.0017,"dx":0.0017,"nx":28,"ny":28,"refTime":"2023-08-16T03:00:00:Z","depth":0,"parameterNumber":3,"parameterNumberName":"V-component_of_WINDS"},"data":[0,0,0,0,0,0,0,0,0,0,0,0,0,0,0,0,0,0,0,0,0,0,0,0,0,0,0,0,0,0,0,0,0,0,0,0,0,0,0,0,0,0,0,0,0,0,0,0,0,0,0,0,0,0,0,0,0,0,5.8928,5.8929,0,5.8992,5.8993,5.8994,5.8935,5.8933,5.893,5.8928,5.8988,5.8991,5.8995,0,0,0,0,0,0,0,0,0,0,0,0,0,5.8747,5.8751,5.8928,5.8929,5.893,5.8992,5.8993,5.8994,5.8936,5.8933,5.893,5.8927,5.8986,5.8991,5.8995,0,0,0,0,0,0,0,0,0,0,0,0,0,5.882,5.8752,5.8928,5.8908,5.8907,5.8992,5.8993,5.8994,5.8936,5.8933,5.8929,5.8926,5.8985,5.899,5.8996,5.9102,0,0,5.9013,5.9016,0,0,0,0,0,0,0,0,5.8816,5.8826,5.891,5.891,5.8909,5.8952,5.8951,5.903,5.8937,5.8925,5.8928,5.8924,5.8978,5.8984,5.9004,5.9104,5.9107,5.9014,5.9017,5.902,5.9021,0,0,0,0,0,0,0,5.8811,5.8823,5.8953,5.8912,5.8911,5.8894,5.89,5.8966,5.897,5.8926,5.8922,5.893,5.8977,5.8999,5.9005,5.9108,5.9014,5.9019,5.9022,5.9024,5.9294,5.9298,0,0,0,0,0,0,5.8809,5.8819,5.8951,5.8955,5.8853,5.89,5.8907,5.8942,5.897,5.8971,5.8933,5.8927,5.8991,5.8998,5.9007,5.9129,5.902,5.9025,5.9028,5.929,5.9295,5.9299,0,0,0,0,0,0,5.8805,5.8821,5.8949,5.8886,5.8901,5.8907,5.8946,5.8945,5.8966,5.8976,5.8975,5.8955,5.8988,5.8999,5.9078,5.9131,5.9028,5.9033,5.9286,5.9292,5.9297,5.9377,0,0,0,0,0,0,5.88,5.882,5.8862,5.8888,5.8905,5.9021,5.895,5.8949,5.8977,5.897,5.8996,5.8996,5.8986,5.907,5.9084,5.9137,5.9037,5.9281,5.9289,5.9295,5.937,5.9385,5.9398,0,0,0,0,0,5.8794,5.8882,5.8865,5.8881,5.8958,5.9025,5.9034,5.9022,5.8982,5.9022,5.9028,5.8996,5.9123,5.9079,5.9094,5.9149,5.9278,5.9286,5.9295,5.9364,5.9382,5.9398,0,0,0,0,0,0,5.886,5.8885,5.8866,5.8966,5.8994,5.9015,5.9066,5.9043,5.9082,5.9073,5.9055,5.9061,5.9144,5.9155,5.9105,5.9251,5.9193,5.9205,5.9241,5.9258,5.9272,5.9266,5.9042,0,0,0,0,0,5.8887,5.8942,5.8959,5.9045,5.906,5.9061,5.9089,5.9078,5.9106,5.9117,5.9128,5.9154,5.9199,5.923,5.9273,5.9372,5.9374,5.9417,5.9431,5.9443,5.9452,5.9502,5.952,5.9327,5.9327,5.9327,0,0,5.8942,5.8962,5.8997,5.9059,5.9079,5.9133,5.9071,5.9131,5.917,5.9125,5.92,5.921,5.9237,5.9326,5.9366,5.9337,5.9506,5.9453,5.9462,5.9466,5.9512,5.9531,5.9547,5.9333,5.9332,5.9331,0,0,5.9069,5.9091,5.9163,5.9185,5.9218,5.9217,5.9235,5.9259,5.9264,5.934,5.9306,5.9351,5.9431,5.9451,5.9472,5.9605,5.9575,5.9619,5.9691,5.974,5.9755,5.9768,5.9813,5.9829,5.9629,5.9629,5.9629,0,5.9132,5.9214,5.9203,5.9265,5.9292,5.9255,5.9326,5.9347,5.9391,5.9409,5.9377,5.9475,5.9491,5.9583,5.9615,5.9634,5.9651,5.9615,5.9754,5.9768,5.978,5.9822,5.9839,5.9634,5.9634,5.9633,5.9633,0,5.9289,5.9346,5.94,5.9445,5.9477,5.9544,5.954,5.9574,5.9559,5.9561,5.9637,5.9655,5.97,5.9721,5.9707,5.981,5.9791,5.9758,5.9699,5.9803,5.9842,5.9858,5.9641,5.9639,5.9638,5.9637,0,0,5.9459,5.9496,5.9515,5.9534,5.9566,5.9609,5.9672,5.9717,5.9745,5.9776,5.9827,5.9895,5.9863,5.9887,5.9875,5.9918,6.0018,5.9878,5.9878,5.9901,6.0128,6.0152,6.0171,6.0,6.0003,6.0005,6.0125,0,5.9584,5.9697,5.9687,5.9792,5.9843,5.9808,5.9862,5.9887,5.989,5.9932,5.9934,5.9982,5.9938,5.9952,5.9993,5.9997,6.0063,5.9989,6.0043,6.0045,6.0035,6.0191,6.0217,6.0329,6.014,6.0143,6.0145,0,5.9746,5.9784,5.9894,5.9916,5.9937,5.9987,6.0025,6.0067,6.0092,6.0091,6.0118,6.0098,6.0158,6.01,6.0182,6.0131,6.0153,6.0158,6.0162,6.0164,6.0099,6.0195,6.0365,6.038,6.0169,6.0167,6.0166,0,5.9855,5.9933,6.0008,6.0026,6.0055,6.0089,6.0103,6.0125,6.0152,6.0185,6.0202,6.0242,6.0263,6.0293,6.0283,6.0243,6.0365,6.0308,6.0363,6.0364,6.0389,6.0387,6.0561,6.0408,6.0408,6.0408,6.0407,0,5.9994,6.0062,6.0057,6.0104,6.0177,6.0165,6.0238,6.0246,6.0266,6.0311,6.0283,6.0325,6.0312,6.0352,6.0345,6.0411,6.0422,6.0421,6.0417,6.0422,6.0421,6.0433,6.0424,6.0412,6.0411,6.041,6.0409,0,6.0128,6.0128,6.0207,6.0228,6.0234,6.0288,6.0304,6.0346,6.0347,6.0404,6.0416,6.0418,6.0464,6.0458,6.0509,6.0504,6.0586,6.0575,6.0578,6.0574,6.0629,6.0623,6.0815,6.0838,6.0673,6.0674,6.0676,0,6.0216,6.0267,6.0293,6.0322,6.0338,6.0385,6.0412,6.0401,6.043,6.0462,6.0499,6.0543,6.0578,6.0653,6.0657,6.0695,6.0683,6.0747,6.0688,6.069,6.068,6.0676,6.0679,6.0758,6.076,6.0762,6.0763,0,6.037,6.0367,6.0409,6.045,6.0483,6.0515,6.0543,6.0568,6.0559,6.0592,6.064,6.0667,6.0719,6.0762,6.0798,6.0809,6.0783,6.0782,6.0796,6.08,6.0798,6.0796,6.0606,6.0777,6.0775,6.0774,6.0774,6.0773,6.0481,6.0524,6.0549,6.0595,6.0615,6.0642,6.0681,6.0688,6.0728,6.0771,6.0761,6.0814,6.0835,6.0881,6.0896,6.0935,6.0911,6.0933,6.0938,6.0943,6.0948,6.0794,6.0942,6.0942,6.0941,6.0941,6.0941,0,6.0631,6.0646,6.0688,6.0729,6.0764,6.074,6.0769,6.08,6.0847,6.087,6.0905,6.0958,6.0999,6.1007,6.1045,6.1075,6.1064,6.1085,6.1081,6.1083,6.0969,6.0951,6.1093,6.1093,6.1093,6.1093,6.1093,6.1093,6.0714,6.0784,6.0784,6.0863,6.0876,6.0928,6.0947,6.097,6.0988,6.1049,6.1084,6.1089,6.1104,6.1144,6.1179,6.118,6.1194,6.1219,6.1215,6.1107,6.1092,6.1077,6.106,6.1223,6.1223,6.1326,6.1327,6.1328]}]]